Location: Observatoire POLARIS
(46.3550°N, 73.3861°W)
Time: 01:03:42
(UTC-05:00)

Tiangong 1 - Visible Passes

Search period start: 25 February 2018 00:00
Search period end: 07 March 2018 00:00
Orbit: 245 x 266 km, 42.8° (Epoch: 24 February)

Date Brightness Start Highest point End Pass type
(mag) Time Alt. Az. Time Alt. Az. Time Alt. Az.
02 Mar 2.8 18:49:57 10° S 18:50:40 12° SSE 18:50:40 12° SSE visible
03 Mar 2.4 18:40:22 10° SSW 18:41:47 15° SSE 18:42:21 14° SE visible
04 Mar 2.2 18:30:45 10° SSW 18:32:26 18° SSE 18:33:39 13° SE visible
05 Mar 1.9 18:20:56 10° SW 18:22:48 22° SSE 18:24:38 10° ESE visible
06 Mar 3.4 19:44:16 10° WSW 19:44:41 13° WSW 19:44:41 13° WSW visible
